GFSNW_925_thetae_336.txt.gz
Theta_e
308 309 308 307 307 309 318 325 328 326 323 321 321 322 323 321 327 329 328 328 329 331 332 332 333 332 335 334 333 331 332 331 332 332 333 333 333 333 333 336 338 334 333 335
308 309 309 308 307 307 313 329 327 325 321 319 320 322 323 324 325 326 328 327 327 327 328 330 331 331 332 333 333 334 334 333 331 331 332 332 334 334 333 333 333 337 339 336
308 308 309 308 307 307 313 328 331 327 325 322 322 325 325 324 325 325 326 326 326 326 327 328 329 331 332 332 332 336 333 333 334 335 334 335 337 336 335 337 334 333 332 334
308 308 308 308 308 309 315 328 331 333 329 325 322 323 326 325 324 325 325 326 324 326 329 329 328 328 329 329 332 331 331 334 334 334 334 334 335 337 338 338 338 341 340 343
308 308 308 307 308 312 322 326 329 328 332 329 328 324 325 326 327 325 327 332 329 330 331 331 330 329 329 328 329 329 331 337 334 336 335 335 335 335 335 336 339 339 339 340
308 308 307 307 307 312 323 323 322 326 325 328 328 328 328 328 328 329 330 330 333 333 334 335 334 333 333 330 330 333 333 336 339 340 337 337 339 336 334 336 338 340 343 345
308 308 307 307 307 307 312 319 320 326 327 326 327 329 329 329 329 331 330 330 331 332 332 333 332 331 330 330 331 330 333 341 339 338 337 340 336 334 336 340 340 340 342 342
307 308 307 307 307 306 311 317 318 324 328 327 324 325 329 331 329 329 330 332 331 330 330 330 331 333 334 334 332 330 330 331 335 338 335 335 334 335 338 338 339 340 341 339
307 307 307 307 307 307 309 316 316 319 324 326 324 325 323 324 325 326 327 326 327 328 329 329 334 335 336 337 336 333 332 335 334 335 335 337 336 337 337 336 339 344 343 346
307 307 308 307 306 307 308 315 317 317 322 323 322 323 325 325 324 323 324 326 328 326 327 329 331 332 332 334 334 334 336 339 337 337 338 336 337 337 337 340 348 344 341 341
306 307 307 306 306 307 308 314 318 317 319 320 320 320 320 322 322 322 325 325 324 323 323 327 328 329 330 332 333 334 338 339 337 340 341 340 336 336 346 344 344 344 348 349
305 305 305 305 305 306 307 316 317 318 318 320 319 319 320 319 320 323 324 323 325 328 331 333 332 332 332 335 334 333 333 337 341 340 340 340 337 339 339 338 336 337 342 343
305 304 304 305 305 306 307 310 315 319 323 325 326 327 325 322 320 318 320 322 326 326 329 327 328 327 328 329 329 331 331 337 336 338 335 338 337 334 332 331 332 332 335 335
304 304 304 305 305 306 306 310 314 318 322 326 328 323 322 323 322 320 318 320 324 324 323 325 325 326 326 326 327 328 328 330 330 332 335 334 335 332 330 329 329 331 334 335
305 305 305 305 305 306 306 310 314 317 321 328 326 323 322 323 323 323 323 323 323 323 326 327 327 328 329 329 328 327 326 330 330 332 331 331 332 330 327 330 333 334 335 336
305 305 306 305 306 305 310 323 320 320 321 323 326 323 323 322 324 325 325 325 325 326 327 327 327 328 327 328 327 326 327 330 330 330 329 328 328 328 327 328 329 330 334 339
306 307 306 306 306 306 316 323 320 319 321 324 327 325 322 323 325 325 325 325 325 326 326 327 326 327 327 327 328 327 330 331 331 330 328 328 329 328 327 328 329 330 333 341
308 306 306 308 311 311 314 316 313 316 320 323 325 326 328 326 326 327 326 327 326 326 327 327 326 327 327 327 327 331 332 331 329 328 327 327 326 327 328 329 328 331 334 340
309 306 311 312 315 322 321 319 317 318 321 328 325 326 332 327 327 328 329 327 328 328 328 328 327 327 328 332 331 332 330 330 328 328 327 328 328 328 328 328 329 331 333 337
312 311 319 325 321 318 318 319 322 323 324 322 323 324 327 325 326 327 326 328 327 327 327 327 327 329 328 329 329 329 328 328 327 328 328 328 329 329 330 330 330 333 334 337
316 318 319 317 316 319 322 325 327 328 328 326 325 323 325 328 328 331 328 329 330 329 328 329 327 329 332 329 328 326 325 325 326 325 325 325 326 329 328 330 332 333 334 335
311 309 311 313 318 321 324 325 326 328 330 329 328 329 326 330 327 329 329 328 328 329 330 331 328 335 331 328 327 326 325 325 324 323 324 325 326 325 328 331 331 332 333 334
315 315 321 323 322 324 325 326 329 330 327 328 328 331 326 326 326 328 330 329 329 328 329 327 336 335 331 329 327 325 324 323 322 323 323 325 324 325 326 328 330 331 331 331
319 321 324 326 325 325 325 325 329 328 329 326 326 329 328 329 329 329 330 328 330 329 329 331 335 333 330 327 326 325 324 323 322 322 323 323 323 325 324 326 329 329 329 329
319 317 323 325 324 324 325 323 325 325 327 324 326 327 327 331 329 330 330 330 330 327 330 333 332 331 330 327 325 324 323 324 323 322 324 325 324 325 325 325 327 328 328 327
314 319 322 323 324 323 323 323 322 322 325 325 327 328 328 327 329 328 328 326 327 331 330 327 333 331 329 326 325 324 323 324 323 323 325 325 325 325 324 324 324 326 328 327
318 320 320 321 322 323 324 322 324 326 325 330 327 326 326 324 326 326 325 326 327 327 325 330 334 330 328 326 325 324 323 324 324 325 325 325 324 324 324 323 321 324 325 324

GFSNW_925_thetae_339.txt.gz
Theta_e
309 309 308 308 307 307 312 321 330 325 321 321 321 319 321 320 321 322 326 328 328 327 329 330 329 331 331 329 331 333 329 326 326 327 329 329 328 327 328 329 331 329 329 330
309 309 309 308 307 307 309 321 328 327 322 324 321 320 320 321 321 322 323 327 328 326 326 327 330 329 329 329 331 334 330 331 330 332 327 328 331 333 333 331 326 328 331 334
309 309 308 308 307 307 310 323 334 328 326 324 323 321 323 324 322 322 324 325 324 324 326 326 328 327 327 327 328 332 330 329 330 331 331 331 332 333 333 336 336 337 336 342
309 309 308 308 307 309 313 326 331 327 332 328 324 321 322 323 325 324 325 325 324 323 323 327 328 328 326 326 328 330 327 328 330 329 331 331 331 332 333 337 337 339 338 339
308 308 308 307 307 312 318 328 325 324 326 328 329 323 323 323 324 325 326 326 328 328 328 331 335 334 333 332 330 329 326 327 331 332 332 332 332 332 332 337 338 337 338 338
308 308 308 307 307 308 316 321 321 323 326 327 326 328 330 328 327 328 328 330 332 334 333 333 332 331 330 330 331 330 329 334 339 340 339 336 336 335 337 338 338 339 343 344
308 308 308 308 307 307 310 314 319 323 328 328 328 327 327 328 331 332 331 331 332 332 329 329 329 328 328 328 328 326 327 331 335 335 335 336 333 333 337 337 339 338 338 342
308 308 308 308 307 307 308 311 317 321 324 325 326 325 326 325 332 331 329 329 330 327 329 330 331 331 331 331 330 328 325 327 328 332 333 333 334 338 337 338 343 340 340 342
307 307 308 308 307 307 307 312 318 319 322 326 322 323 325 325 325 325 327 326 325 326 328 329 333 333 334 338 337 331 329 327 330 333 335 335 340 336 335 335 349 344 346 347
305 306 308 307 306 306 307 311 317 318 320 320 320 322 321 322 324 324 326 326 328 327 329 329 328 329 331 333 336 342 339 341 338 336 340 340 337 340 338 342 349 340 339 345
306 305 305 305 305 306 307 311 318 319 320 319 318 321 323 322 322 325 325 326 326 328 326 325 328 329 328 331 336 339 336 341 341 342 341 342 339 341 349 343 341 338 337 338
307 305 304 305 305 306 306 312 310 316 320 320 318 319 320 320 320 320 324 323 325 330 332 334 335 336 334 334 336 334 341 339 342 342 343 338 334 335 332 330 331 332 331 334
306 305 305 305 305 305 306 308 309 314 321 323 324 325 325 324 323 319 320 321 326 330 329 329 329 329 327 328 328 329 334 329 334 336 335 337 333 331 329 328 328 329 331 332
306 305 305 305 305 306 306 307 309 313 321 326 328 325 325 323 322 321 318 317 318 323 325 325 327 328 327 327 327 328 327 328 331 333 334 332 332 329 329 327 329 329 330 335
310 306 306 306 306 306 306 307 310 314 319 325 324 321 322 323 322 323 322 322 322 325 325 329 329 328 330 330 328 328 329 331 331 335 330 330 329 326 327 327 327 327 330 339
307 306 308 307 306 306 309 321 318 317 321 325 326 323 324 322 323 324 326 325 325 327 328 328 329 329 329 329 330 329 328 330 329 331 328 327 328 328 327 327 327 328 332 337
309 308 308 306 305 305 313 323 320 318 319 325 327 329 324 323 325 325 325 325 326 327 327 328 327 326 327 329 329 330 331 331 331 329 328 329 328 326 326 328 328 329 332 333
311 311 309 308 311 311 313 317 314 313 319 323 328 328 328 326 328 327 325 327 327 329 327 328 328 328 331 331 329 332 331 331 330 328 326 326 326 327 327 328 329 329 334 332
314 314 311 312 314 320 322 320 318 317 320 327 330 329 333 328 329 330 330 331 331 331 329 329 329 329 330 335 335 332 330 330 329 328 327 327 327 327 328 328 329 330 332 330
317 314 317 325 321 318 319 318 323 323 324 323 324 325 325 328 330 330 329 329 329 332 330 328 330 329 330 329 330 329 328 326 326 327 328 326 326 327 329 329 329 330 332 326
317 317 319 314 315 318 324 326 328 328 329 327 327 325 325 328 332 333 332 332 332 333 330 332 332 334 333 330 328 326 326 326 325 324 325 324 326 326 327 330 329 330 331 332
309 309 310 313 318 322 326 327 327 330 332 333 332 328 325 331 331 331 331 331 331 331 333 334 336 337 333 330 329 328 326 325 324 323 323 326 326 327 327 328 328 330 330 332
314 313 319 323 323 320 325 325 329 332 330 331 332 332 328 330 329 331 332 333 332 330 333 332 337 337 333 330 328 327 326 324 324 324 322 324 325 323 326 326 329 329 329 330
319 322 319 326 327 326 326 327 329 330 333 329 325 331 329 332 330 332 331 332 331 333 332 334 336 336 330 329 328 327 325 325 325 325 325 325 326 326 324 325 326 327 328 329
319 321 316 323 324 324 324 325 325 327 328 329 326 328 329 328 331 331 329 331 332 332 333 336 334 334 332 329 327 326 326 326 325 325 324 327 326 327 326 325 325 325 326 327
317 319 322 322 323 325 323 324 327 326 327 327 328 328 329 329 328 330 331 330 330 333 332 333 334 334 331 329 328 327 327 327 327 327 326 326 326 326 325 324 324 322 324 326
317 319 319 320 321 321 322 323 326 325 328 329 327 325 327 326 330 330 329 331 332 330 332 331 332 332 329 328 326 327 328 328 327 327 326 326 324 324 325 324 321 320 324 325

GFSNW_925_thetae_342.txt.gz
Theta_e
309 309 309 307 307 307 309 313 322 322 316 313 309 311 315 317 318 318 318 320 325 325 325 324 325 327 327 326 326 331 322 316 321 325 324 326 326 327 323 325 327 323 322 325
309 309 309 308 307 308 308 310 315 323 318 316 314 313 316 316 317 317 318 322 323 322 323 323 325 325 325 324 329 330 328 324 326 326 325 326 329 329 328 323 321 325 327 330
309 308 309 308 307 308 310 314 326 321 315 314 319 319 317 317 319 317 317 320 321 320 320 320 323 324 325 324 324 331 327 321 325 326 327 327 330 329 328 330 331 331 335 337
309 308 308 307 307 311 313 315 322 320 323 323 323 319 318 318 318 320 318 319 320 321 322 320 319 325 326 328 331 325 321 324 324 323 324 327 329 330 329 329 332 335 333 337
309 308 309 308 307 310 317 319 317 315 318 320 321 318 320 320 319 319 321 322 320 321 321 321 334 331 329 329 326 327 321 325 327 328 331 332 333 334 335 338 335 336 334 340
309 309 309 309 308 307 309 313 317 315 318 320 322 322 323 325 323 323 326 329 326 328 330 327 327 326 325 327 328 325 325 326 328 331 333 331 333 333 337 337 338 335 337 338
309 310 310 310 307 307 307 310 313 315 320 321 322 323 322 323 322 328 327 327 327 329 325 325 323 322 323 323 323 321 323 321 326 327 326 330 327 332 343 347 345 344 339 344
308 308 309 309 307 306 307 308 312 313 315 318 319 320 320 319 319 321 324 324 325 321 322 323 323 323 325 326 325 324 319 319 323 325 325 326 331 335 335 343 344 344 344 344
307 308 307 307 306 306 307 309 313 313 315 315 318 318 317 318 318 318 321 321 317 321 320 322 327 327 327 329 327 325 322 320 324 325 329 330 336 335 335 335 344 338 341 339
308 308 308 306 305 306 306 308 313 315 314 313 316 317 317 317 317 318 319 319 320 320 320 322 322 322 324 327 328 327 330 330 327 327 330 339 337 338 338 339 339 338 341 340
309 307 306 305 305 305 306 309 311 314 314 314 316 316 319 317 315 317 316 318 318 322 321 318 318 322 323 328 328 331 333 335 337 334 336 340 334 336 340 337 335 336 331 337
308 306 306 306 305 305 306 309 308 310 313 314 317 316 316 317 317 315 313 317 316 321 324 325 325 329 322 324 329 324 325 327 335 336 339 332 328 329 330 326 326 327 328 333
310 309 308 306 306 306 307 307 307 312 312 315 317 319 322 322 321 320 313 312 316 315 319 320 321 321 318 321 322 325 323 324 333 331 331 329 327 326 325 324 325 328 326 331
311 310 306 306 307 307 307 307 309 308 311 320 320 322 319 322 322 322 320 314 313 314 316 316 319 321 319 321 321 322 323 325 324 329 327 328 326 326 326 325 324 325 325 332
308 310 308 308 308 306 306 306 310 308 313 319 319 319 322 321 322 321 320 317 315 316 317 319 321 319 322 321 321 323 324 326 327 329 325 323 324 324 325 324 325 325 331 334
307 308 310 310 307 305 309 314 316 314 312 317 321 318 318 321 322 320 320 317 316 317 318 319 320 320 321 322 323 322 326 324 324 326 325 324 326 324 325 326 326 331 328 328
308 309 312 313 306 306 309 318 319 314 314 318 321 321 319 322 321 319 319 320 319 318 318 321 320 321 319 321 323 325 326 325 324 323 322 323 324 326 325 326 328 333 332 330
310 313 315 313 310 311 313 317 314 313 315 317 322 322 321 321 320 321 317 320 319 319 319 320 321 320 321 324 322 327 326 324 324 324 321 322 322 322 323 325 327 330 331 326
316 317 314 311 312 315 321 320 317 315 318 321 323 323 324 322 322 321 323 323 325 321 322 321 322 322 324 323 327 325 325 325 324 323 322 322 321 324 325 326 327 329 330 326
316 316 317 319 318 316 317 317 316 317 316 316 319 317 319 318 324 326 322 322 321 323 322 321 323 322 321 325 322 322 321 321 321 322 324 323 323 324 327 327 326 328 328 327
312 309 312 313 313 314 317 320 321 321 324 319 319 317 315 316 326 326 324 326 326 327 323 324 324 330 327 322 320 319 319 319 319 318 320 321 321 323 325 326 326 327 327 327
308 307 308 311 312 315 321 325 323 325 327 324 324 323 320 319 321 323 324 327 324 328 324 329 334 330 325 323 323 321 319 320 320 320 319 321 323 323 323 325 326 326 327 327
311 310 312 317 316 316 324 324 323 325 324 326 324 325 324 322 321 323 326 329 326 323 326 329 330 329 325 323 323 322 320 321 321 321 322 322 323 324 324 325 326 325 325 327
313 320 318 322 326 323 320 324 325 326 328 326 326 326 328 327 326 325 329 326 326 330 330 330 329 324 324 323 322 321 322 322 322 321 320 323 324 324 325 325 324 324 324 326
316 317 317 319 320 321 322 322 323 323 322 320 320 322 327 327 327 325 326 329 330 328 329 331 328 324 324 322 322 321 322 322 322 323 323 324 324 323 323 324 324 323 322 324
314 316 318 317 317 319 319 319 323 323 324 323 323 324 327 327 326 328 329 330 329 328 328 329 327 325 324 322 321 322 323 323 322 323 324 324 323 322 322 323 322 321 320 323
315 315 313 315 315 316 318 320 322 322 322 325 324 323 326 323 326 328 326 328 328 329 329 328 325 323 322 320 320 323 324 323 323 323 324 323 323 322 321 318 320 319 322 324

GFSNW_925_thetae_345.txt.gz
Theta_e
309 309 309 309 307 307 309 308 320 319 314 309 304 309 313 314 316 313 315 316 316 321 322 322 322 324 325 324 326 323 318 319 325 327 323 323 323 326 320 325 328 320 321 324
309 308 308 308 307 308 308 307 311 319 315 316 313 312 315 315 316 314 316 317 321 320 321 322 323 324 323 322 324 327 323 322 325 325 323 325 328 328 322 319 320 325 327 327
309 309 310 308 307 309 310 312 324 317 310 310 316 319 319 319 317 315 315 315 316 318 319 319 320 322 324 324 328 335 325 319 323 325 325 325 328 328 327 325 327 327 329 334
310 310 310 309 307 309 313 314 320 316 320 319 322 321 320 321 322 317 316 317 316 317 318 319 320 327 328 326 328 325 319 323 322 322 322 325 327 328 330 329 328 333 331 335
309 309 309 309 307 307 314 316 317 314 315 317 321 318 321 320 321 317 318 318 321 316 317 318 328 329 329 330 326 326 320 325 326 327 330 330 333 332 335 335 334 334 333 338
309 309 309 308 308 307 307 309 313 314 314 318 322 321 322 322 320 321 319 325 326 326 328 325 325 324 323 324 324 324 324 322 323 326 326 327 330 331 339 346 344 342 333 340
309 309 309 309 308 307 306 308 309 313 315 318 321 320 321 321 320 321 324 323 326 327 323 322 320 320 321 322 322 319 320 320 321 323 323 329 326 340 341 343 344 342 343 344
308 308 309 309 309 308 307 307 309 310 313 315 316 318 318 315 316 319 320 322 320 315 320 321 321 321 322 324 325 323 316 318 322 324 323 324 330 338 336 341 340 343 339 338
308 308 309 310 309 308 306 308 310 309 312 311 316 317 316 315 315 316 318 318 315 317 317 321 324 325 325 325 324 321 316 316 321 321 324 327 325 334 335 334 342 338 337 337
308 309 309 310 309 308 306 307 310 311 313 311 315 315 315 315 315 315 315 316 318 318 318 320 321 322 322 325 326 324 326 327 323 323 328 338 335 334 334 337 335 336 338 336
309 309 309 310 308 306 307 307 309 311 311 312 314 314 317 315 313 315 314 316 316 320 320 316 317 319 319 324 324 329 328 332 336 330 334 343 330 331 335 333 332 335 332 336
307 310 311 308 306 307 307 307 309 307 308 311 315 316 316 316 316 314 312 315 314 319 322 322 323 328 319 321 326 322 325 327 334 335 335 328 327 328 329 328 325 326 327 329
306 308 309 308 307 308 308 306 307 308 307 311 313 317 321 319 317 315 314 310 313 312 316 317 318 319 315 319 320 323 322 324 332 329 330 327 325 324 323 322 325 325 325 328
305 306 307 308 308 308 308 307 307 307 306 314 317 320 318 319 319 317 316 312 310 311 313 314 316 320 315 318 319 320 321 323 326 326 327 326 324 323 324 324 325 328 330 329
306 307 308 309 310 309 306 306 307 307 311 315 315 316 319 320 318 318 318 313 311 313 316 316 318 316 320 318 318 321 321 323 326 327 322 322 323 323 324 326 328 331 333 331
307 308 310 311 312 308 307 313 314 310 309 313 319 315 316 321 318 317 312 312 313 314 315 316 317 317 318 320 321 321 322 321 321 324 321 321 322 324 325 328 331 330 330 328
309 310 314 314 314 308 306 316 315 312 310 314 317 318 317 319 318 316 316 317 316 317 317 318 318 318 317 318 321 325 324 323 322 320 320 324 324 325 324 329 331 331 331 330
310 315 316 316 313 310 313 316 312 312 310 314 318 320 317 319 318 319 315 317 316 317 317 317 319 317 318 323 318 323 324 322 322 321 320 320 320 322 324 326 329 330 328 325
311 314 312 312 311 314 316 317 315 313 317 319 319 322 324 316 319 319 320 317 321 316 320 318 319 319 323 319 324 325 323 323 322 320 319 320 324 324 324 325 327 328 326 325
312 314 315 317 314 312 313 315 314 314 314 312 315 314 320 316 320 323 322 321 322 322 320 318 320 320 319 320 322 322 321 319 319 321 322 322 323 324 324 324 325 326 325 324
310 306 309 312 313 313 313 318 319 318 322 316 316 315 313 312 323 323 321 324 322 326 323 322 321 326 325 320 319 317 316 317 318 318 320 319 320 322 323 324 324 325 325 323
307 307 307 308 311 313 319 321 321 324 325 321 321 321 315 316 318 321 321 327 324 328 321 327 330 329 322 320 320 320 317 318 318 318 319 320 320 321 322 323 323 324 324 323
309 309 312 314 315 314 322 323 320 322 322 326 326 326 324 320 318 320 323 327 325 321 324 327 327 325 323 322 321 321 320 320 320 321 321 322 321 323 323 323 324 324 322 323
313 318 314 320 324 320 318 320 321 322 327 326 325 326 327 325 326 325 327 324 325 328 330 330 326 323 322 321 321 321 321 320 320 320 321 322 321 321 323 323 323 322 321 322
315 315 316 318 318 320 321 319 322 324 321 319 319 318 322 323 328 325 326 327 329 327 329 325 324 321 322 321 320 319 320 321 321 322 321 322 323 322 322 323 323 322 320 321
314 314 316 315 315 317 317 317 319 320 320 322 322 321 322 326 326 327 327 328 328 326 327 327 324 324 321 321 319 320 321 321 321 321 322 322 321 320 320 321 321 320 318 320
315 313 311 313 313 313 314 317 319 320 321 322 324 326 326 321 326 328 325 327 326 326 328 326 324 323 320 318 320 321 322 320 320 320 320 320 320 320 318 316 318 318 320 321